Location: Glens Falls
(43.3090°N, 73.6440°W)
Time: 12:47:27

SeaSat 1 - Pass Details

Date: 24 February 2018
Orbit: 745 x 747 km, 108.0° (Epoch: 19 March)

Event Time Altitude Azimuth Distance (km) Brightness Sun altitude
Exits shadow 20:04:39 37° 200° (SSW) 1,152 3.4 -27.4°
Maximum altitude 20:06:08 49° 247° (WSW) 960 3.2 -27.7°
Drops below altitude 10° 20:10:55 10° 323° (NW) 2,271 5.6 -28.5°
Sets 20:13:16 0° 328° (NNW) 3,200 6.4 -28.9°
